Weather in Panama City

United States     30°09′30″N   85°39′38″W
temp.,
°C
wind,
m/s
gust,
m/s
humid.,
%
clouds,
%
prec.,
mm/h
press.,
hPa
HPBL,
m
16 may, sun
sun1601:00+18ene395712 0.0 1021230
04:00+17e386930 0.0 1022206
07:00+17e396313 0.0 1024261
10:00+25ese4635100 0.0 10241274
13:00+28sse452966 0.0 10221913
16:00+27ssw553785 0.0 10201344
19:00+22ssw35525 0.0 1020377
22:00+20nw11627 0.0 102130
17 may, mon
mon1701:00+19ene236512 0.0 102073
04:00+18ese310715 0.0 1020331
07:00+19ese397798 0.0 1021301
10:00+26se46515 0.0 10211200
13:00+28s654660 0.0 10201701
16:00+26s565498 0.0 1019928
19:00+23s3660100 0.0 1019329
22:00+22ese1262100 0.0 101947
18 may, tue
tue1801:00+22e3105567 0.0 1019408
04:00+22se5117012 0.0 1019754
07:00+22ese497232 0.0 1021809
10:00+27se675219 0.0 10211304
13:00+29s674949 0.0 10201937
16:00+28sse674711 0.3 10191685
19:00+25s47625 0.3 1019304
22:00+22ene227520 0.0 102044
19 may, wed
wed1901:00+22e411675 0.0 1020569
04:00+20e411710 0.0 1019566
07:00+20e410754 0.0 1022565
10:00+26ese575411 0.0 10221342
13:00+30se564010 0.0 10202220
16:00+30sse573546 0.0 10181950
19:00+26ssw245498 0.0 1018138
22:00+25ese255571 0.0 1020293
20 may, thu
thu2001:00+23e5116965 0.1 1021927
04:00+22e5127695 0.0 1020776
07:00+22e511765 0.0 1022796
10:00+27ese68485 0.0 10231497
13:00+30se573735 0.0 10222241
16:00+30sse363671 0.0 10201533
19:00+26wsw245138 0.0 1021214
22:00+24ene25574 0.0 1022141